When you browse on this site, cookies collect data to enhance your experience and personalize the content and advertising you see.
Visit our Privacy Policy to learn more. By continuing to use the site, you agree to this use of cookies and data.
  • In Germany
  • List of Countries
  • For 7 days
  • Water Temperature
  • Satellite Maps
  • Weather Map
  • Weather Widgets
  • user-avatar
    Login

    Hourly Weather Kormovoe

    Today, 20 November, Tuesday

    Time Temperature Precipitation Wind Pressure Humidity
    00:00 -2°C° 0 mm 4 mps 759 mmHg 73%
    01:00 -2°C° 0 mm 4 mps 759 mmHg 74%
    02:00 -1°C° 0 mm 4 mps 758 mmHg 74%
    03:00 -1°C° 0 mm 3 mps 758 mmHg 79%
    04:00 -1°C° 0 mm 3 mps 758 mmHg 80%
    05:00 -1°C° 0 mm 3 mps 758 mmHg 80%
    06:00 -1°C° 0 mm 4 mps 758 mmHg 80%
    07:00 -1°C° 0.2 mm 4 mps 758 mmHg 81%
    08:00 -1°C° 0.2 mm 4 mps 758 mmHg 82%
    09:00 -1°C° 0 mm 4 mps 757 mmHg 82%
    10:00 0°C° 0.1 mm 4 mps 757 mmHg 82%
    11:00 0°C° 0.1 mm 4 mps 757 mmHg 82%
    12:00 +1°C° 0.1 mm 4 mps 756 mmHg 83%
    13:00 +1°C° 0.5 mm 4 mps 756 mmHg 85%
    14:00 +1°C° 0.5 mm 4 mps 755 mmHg 87%
    15:00 0°C° 0 mm 4 mps 755 mmHg 91%
    16:00 0°C° 0.5 mm 4 mps 755 mmHg 91%
    17:00 0°C° 0.5 mm 4 mps 755 mmHg 92%
    18:00 0°C° 0.5 mm 5 mps 754 mmHg 93%
    19:00 0°C° 0.2 mm 4 mps 754 mmHg 93%
    20:00 0°C° 0.2 mm 4 mps 754 mmHg 94%
    21:00 0°C° 0.2 mm 4 mps 754 mmHg 94%
    22:00 0°C° 0.5 mm 4 mps 754 mmHg 94%
    23:00 0°C° 0.5 mm 4 mps 755 mmHg 94%

    Tomorrow, 21 November, Wednesday

    Time Temperature Precipitation Wind Pressure Humidity
    00:00 0°C° 0.5 mm 4 mps 755 mmHg 94%
    01:00 0°C° 0 mm 4 mps 755 mmHg 93%
    02:00 0°C° 0 mm 4 mps 755 mmHg 91%
    03:00 -1°C° 0 mm 4 mps 755 mmHg 90%
    04:00 -1°C° 0 mm 4 mps 756 mmHg 88%
    05:00 0°C° 0 mm 3 mps 756 mmHg 85%
    06:00 -1°C° 0 mm 3 mps 756 mmHg 83%
    07:00 -1°C° 0 mm 3 mps 757 mmHg 78%
    08:00 -1°C° 0 mm 3 mps 757 mmHg 73%
    09:00 -1°C° 0 mm 3 mps 757 mmHg 68%
    10:00 0°C° 0 mm 3 mps 757 mmHg 66%
    11:00 +1°C° 0 mm 2 mps 757 mmHg 64%
    12:00 +2°C° 0 mm 2 mps 757 mmHg 62%
    13:00 +2°C° 0 mm 2 mps 757 mmHg 64%
    14:00 +2°C° 0 mm 2 mps 756 mmHg 65%
    15:00 +2°C° 0 mm 2 mps 756 mmHg 67%
    16:00 +1°C° 0 mm 2 mps 756 mmHg 70%
    17:00 -1°C° 0 mm 2 mps 756 mmHg 74%
    18:00 -2°C° 0 mm 2 mps 756 mmHg 78%
    19:00 -2°C° 0 mm 2 mps 756 mmHg 79%
    20:00 -2°C° 0 mm 2 mps 756 mmHg 80%
    21:00 -2°C° 0 mm 2 mps 756 mmHg 81%
    22:00 -3°C° 0 mm 2 mps 756 mmHg 82%
    23:00 -3°C° 0 mm 2 mps 755 mmHg 83%

    Day after tomorrow, 22 November, Thursday

    Time Temperature Precipitation Wind Pressure Humidity
    00:00 -3°C° 0 mm 2 mps 755 mmHg 84%
    01:00 -3°C° 0 mm 2 mps 755 mmHg 85%
    02:00 -3°C° 0 mm 2 mps 755 mmHg 86%
    03:00 -3°C° 0 mm 2 mps 755 mmHg 87%
    04:00 -3°C° 0 mm 2 mps 755 mmHg 87%
    05:00 -4°C° 0 mm 2 mps 755 mmHg 87%
    06:00 -2°C° 0 mm 1 mps 755 mmHg 88%
    07:00 -3°C° 0 mm 2 mps 755 mmHg 85%
    08:00 -3°C° 0 mm 2 mps 755 mmHg 83%
    09:00 -3°C° 0 mm 2 mps 755 mmHg 80%
    10:00 -2°C° 0 mm 2 mps 755 mmHg 76%
    11:00 -1°C° 0 mm 2 mps 755 mmHg 72%
    12:00 +1°C° 0 mm 2 mps 754 mmHg 68%
    13:00 0°C° 0 mm 3 mps 754 mmHg 69%
    14:00 0°C° 0 mm 3 mps 754 mmHg 70%
    15:00 0°C° 0 mm 3 mps 754 mmHg 71%
    16:00 -1°C° 0 mm 3 mps 754 mmHg 76%
    17:00 -2°C° 0 mm 3 mps 754 mmHg 81%
    18:00 -3°C° 0 mm 2 mps 754 mmHg 87%
    19:00 -3°C° 0 mm 2 mps 754 mmHg 88%
    20:00 -4°C° 0 mm 2 mps 755 mmHg 89%
    21:00 -5°C° 0 mm 3 mps 755 mmHg 90%
    22:00 -5°C° 0 mm 3 mps 755 mmHg 89%
    23:00 -5°C° 0 mm 3 mps 755 mmHg 89%

    23 November, Friday

    Time Temperature Precipitation Wind Pressure Humidity
    00:00 -5°C° 0 mm 3 mps 755 mmHg 88%
    01:00 -5°C° 0 mm 3 mps 755 mmHg 87%
    02:00 -6°C° 0 mm 3 mps 755 mmHg 85%
    03:00 -7°C° 0 mm 4 mps 755 mmHg 84%
    04:00 -7°C° 0 mm 4 mps 755 mmHg 83%
    05:00 -7°C° 0 mm 5 mps 754 mmHg 82%
    06:00 -7°C° 0 mm 5 mps 754 mmHg 81%
    07:00 -6°C° 0 mm 6 mps 755 mmHg 79%
    08:00 -6°C° 0 mm 6 mps 755 mmHg 77%
    09:00 -6°C° 0 mm 7 mps 756 mmHg 75%
    10:00 -6°C° 0 mm 7 mps 756 mmHg 74%
    11:00 -4°C° 0 mm 7 mps 756 mmHg 73%
    12:00 -3°C° 0 mm 7 mps 756 mmHg 72%
    13:00 -3°C° 0 mm 7 mps 757 mmHg 73%
    14:00 -4°C° 0 mm 7 mps 757 mmHg 74%
    15:00 -4°C° 0 mm 6 mps 758 mmHg 75%
    16:00 -4°C° 0 mm 6 mps 759 mmHg 77%
    17:00 -4°C° 0 mm 5 mps 760 mmHg 79%
    18:00 -3°C° 0 mm 4 mps 761 mmHg 81%
    19:00 -4°C° 0 mm 4 mps 761 mmHg 83%
    20:00 -5°C° 0 mm 3 mps 762 mmHg 85%
    21:00 -5°C° 0 mm 3 mps 763 mmHg 87%
    22:00 -4°C° 0 mm 2 mps 764 mmHg 84%
    23:00 -4°C° 0 mm 2 mps 764 mmHg 82%

    24 November, Saturday

    Time Temperature Precipitation Wind Pressure Humidity
    00:00 -3°C° 0 mm 1 mps 764 mmHg 80%
    01:00 -3°C° 0 mm 1 mps 765 mmHg 77%
    02:00 -3°C° 0 mm 1 mps 765 mmHg 75%
    03:00 -4°C° 0 mm 0 mps 765 mmHg 73%
    04:00 -4°C° 0 mm 0 mps 765 mmHg 72%
    05:00 -4°C° 0 mm 0 mps 765 mmHg 70%
    06:00 -4°C° 0 mm 0 mps 765 mmHg 69%
    07:00 -2°C° 0 mm 1 mps 766 mmHg 67%
    08:00 -2°C° 0 mm 1 mps 766 mmHg 65%
    09:00 -3°C° 0 mm 2 mps 766 mmHg 63%
    10:00 -2°C° 0 mm 2 mps 766 mmHg 58%
    11:00 -1°C° 0 mm 2 mps 766 mmHg 54%
    12:00 +1°C° 0 mm 2 mps 765 mmHg 50%
    13:00 +1°C° 0 mm 2 mps 765 mmHg 51%
    14:00 0°C° 0 mm 3 mps 765 mmHg 52%
    15:00 0°C° 0 mm 3 mps 765 mmHg 53%
    16:00 -1°C° 0 mm 3 mps 764 mmHg 56%
    17:00 -2°C° 0 mm 3 mps 764 mmHg 59%
    18:00 -4°C° 0 mm 3 mps 764 mmHg 63%
    19:00 -4°C° 0 mm 4 mps 764 mmHg 63%
    20:00 -4°C° 0 mm 4 mps 764 mmHg 64%
    21:00 -5°C° 0 mm 4 mps 763 mmHg 64%
    22:00 -5°C° 0 mm 4 mps 763 mmHg 64%
    23:00 -5°C° 0 mm 4 mps 763 mmHg 63%

    25 November, Sunday

    Time Temperature Precipitation Wind Pressure Humidity
    00:00 -5°C° 0 mm 4 mps 762 mmHg 63%
    01:00 -5°C° 0 mm 3 mps 762 mmHg 65%
    02:00 -5°C° 0 mm 3 mps 762 mmHg 67%
    03:00 -5°C° 0 mm 3 mps 761 mmHg 69%
    04:00 -5°C° 0 mm 3 mps 761 mmHg 73%
    05:00 -5°C° 0 mm 3 mps 760 mmHg 77%
    06:00 -4°C° 0 mm 3 mps 760 mmHg 81%
    07:00 -4°C° 0 mm 3 mps 760 mmHg 82%
    08:00 -3°C° 0 mm 4 mps 760 mmHg 84%
    09:00 -2°C° 0 mm 4 mps 759 mmHg 85%
    10:00 0°C° 0 mm 4 mps 759 mmHg 84%
    11:00 +1°C° 0 mm 4 mps 759 mmHg 82%
    12:00 +3°C° 0 mm 4 mps 758 mmHg 81%
    13:00 +3°C° 0 mm 3 mps 758 mmHg 83%
    14:00 +3°C° 0 mm 3 mps 757 mmHg 85%
    15:00 +3°C° 0 mm 3 mps 757 mmHg 87%
    16:00 +2°C° 0 mm 3 mps 757 mmHg 89%
    17:00 +2°C° 0 mm 3 mps 757 mmHg 91%
    18:00 +1°C° 0 mm 3 mps 757 mmHg 93%
    19:00 +1°C° 0 mm 3 mps 756 mmHg 93%
    20:00 +2°C° 0 mm 2 mps 756 mmHg 93%
    21:00 +2°C° 0 mm 2 mps 756 mmHg 93%
    22:00 +2°C° 0 mm 2 mps 756 mmHg 93%
    23:00 +1°C° 0 mm 2 mps 756 mmHg 93%
    Show more